Location: Ahausen
(50.4985°N, 8.2722°E)
Time: 11:05:08
(UTC+00:00)

In-Cosmos 22 - Pass Details

Date: 18 September 2020
Orbit: 785 x 876 km, 81.2° (Epoch: 25 October)

Event Time Altitude Azimuth Distance (km) Brightness Sun altitude
Rises 19:07:38 0° 346° (NNW) 3,290 7.8 -15.4°
Reaches altitude 10° 19:10:00 10° 345° (NNW) 2,357 7.0 -15.8°
Maximum altitude 19:15:18 79° 260° (W) 810 4.2 -16.6°
Drops below altitude 10° 19:20:37 10° 175° (S) 2,364 6.2 -17.3°
Enters shadow 19:21:21 - 174° (S) 2,649 6.5 -17.4°
